Location: Krakow
(50.0830°N, 19.9170°E)
Time: 07:26:40
(UTC+02:00)

A-11 Canister half - Pass Details

Date: 17 March 2026
Orbit: 1523 x 1684 km, 47.3° (Epoch: 18 April)

Event Time Altitude Azimuth Distance (km) Brightness Sun altitude
Rises 14:30:29 0° 287° (WNW) 4,795 12.0 28.2°
Reaches altitude 10° 14:33:48 10° 281° (W) 3,786 11.7 27.8°
Maximum altitude 14:42:34 43° 214° (SW) 2,058 11.4 26.7°
Drops below altitude 10° 14:51:07 10° 147° (SSE) 3,689 11.1 25.6°
Sets 14:54:19 0° 141° (SE) 4,662 11.5 25.2°
